Wheeling, WV

4:42 PM EST on December 09, 2019 (GMT -0500)
Wheeling-Ohio County

Weather History for KHLG - October, 2019

Change the Weather History Date:

Wednesday, October 16, 2019

  Actual Average Record
Temperature  
Mean Temperature 53 °F 53 °F  
Max Temperature 60 °F 63 °F 85 °F (1947)
Min Temperature 45 °F 44 °F 20 °F (1939)
Degree Days  
Heating Degree Days 12 12  
Month to date heating degree days 106 156  
Since 1 July heating degree days 107 257  
Cooling Degree Days 0 0  
Month to date cooling degree days 40 10  
Year to date cooling degree days 986 688  
Growing Degree Days 2 (Base 50)    
Moisture  
Dew Point 44 °F    
Average Humidity 74    
Maximum Humidity 97    
Minimum Humidity 51    
Precipitation  
Precipitation 0.73 in 0.09 in 1.49 in (1943)
Month to date precipitation 2.45 1.34  
Year to date precipitation 30.43 31.11  
Sea Level Pressure  
Sea Level Pressure 29.71 in    
Wind  
Wind Speed 11 mph (WSW)    
Max Wind Speed 21 mph    
Max Gust Speed 30 mph    
Visibility 8 miles    
Events Rain , Thunderstorm    
T = Trace of Precipitation, MM = Missing Value Source: NWS Daily Summary

Daily Weather History Graph

Daily Weather History Graph

Search for Another Location

Airport or City:

Astronomy

Oct. 16, 2019 Rise Set
Actual Time 7:34 AM EDT 6:41 PM EDT
Civil Twilight 7:06 AM EDT 7:09 PM EDT
Nautical Twilight 6:35 AM EDT 7:40 PM EDT
Astronomical Twilight 6:03 AM EDT 8:11 PM EDT
Moon 8:34 PM EDT (10/16) 10:03 AM EDT (10/16)
Length of Visible Light 12h 02m
Length of Day
11h 07m
Waning Gibbous, 93% of the Moon is Illuminated
Oct 16
Waning Gibbous
Oct 21
Last Quarter
Oct 27
New
Nov 4
First Quarter
Nov 12
Full

Hourly Weather History & Observations

Time (EDT) Temp. Windchill Dew Point Humidity Pressure Visibility Wind Dir Wind Speed Gust Speed Precip Events Conditions
12:53 AM 59.0 °F - 41.0 °F 51% 29.82 in 10.0 mi South 8.1 mph - N/A   Clear
1:53 AM 59.0 °F - 42.1 °F 53% 29.78 in 10.0 mi South 10.4 mph - N/A   Clear
2:53 AM 57.9 °F - 42.1 °F 56% 29.77 in 10.0 mi South 10.4 mph - N/A   Clear
3:53 AM 59.0 °F - 43.0 °F 55% 29.72 in 10.0 mi South 8.1 mph - N/A   Clear
4:53 AM 59.0 °F - 43.0 °F 55% 29.70 in 10.0 mi South 8.1 mph - N/A   Clear
5:53 AM 59.0 °F - 44.1 °F 58% 29.69 in 10.0 mi WSW 5.8 mph - N/A   Overcast
6:06 AM 55.9 °F - 46.0 °F 69% 29.71 in 2.5 mi WSW 8.1 mph - 0.08 in Rain , Thunderstorm Heavy Thunderstorms and Rain
6:19 AM 54.0 °F - 46.9 °F 77% 29.72 in 5.0 mi SW 11.5 mph - 0.11 in Rain Rain
6:31 AM 54.0 °F - 48.9 °F 83% 29.71 in 5.0 mi South 15.0 mph 23.0 mph 0.14 in Rain , Thunderstorm Light Rain
6:46 AM 53.1 °F - 50.0 °F 89% 29.69 in 4.0 mi South 15.0 mph 24.2 mph 0.19 in Rain Rain
6:53 AM 53.1 °F - 50.0 °F 89% 29.69 in 5.0 mi South 15.0 mph - 0.21 in Rain Rain
7:53 AM 53.1 °F - 51.1 °F 93% 29.67 in 10.0 mi South 10.4 mph - 0.06 in Rain Light Rain
8:53 AM 54.0 °F - 53.1 °F 97% 29.65 in 3.0 mi South 13.8 mph 21.9 mph 0.08 in Rain Rain
9:02 AM 55.0 °F - 53.1 °F 93% 29.64 in 2.5 mi South 13.8 mph - 0.03 in Rain Rain
9:13 AM 54.0 °F - 52.0 °F 93% 29.66 in 2.0 mi West 15.0 mph 23.0 mph 0.07 in Rain Rain
9:21 AM 51.1 °F - 48.9 °F 92% 29.67 in 1.2 mi WNW 13.8 mph 25.3 mph 0.14 in Rain Heavy Rain
9:27 AM 51.1 °F - 48.0 °F 89% 29.68 in 2.0 mi WNW 17.3 mph 28.8 mph 0.15 in Rain Rain
9:34 AM 50.0 °F - 46.9 °F 89% 29.68 in 3.0 mi WNW 15.0 mph 28.8 mph 0.17 in Rain Rain
9:53 AM 48.9 °F - 46.9 °F 93% 29.70 in 3.0 mi WNW 9.2 mph - 0.22 in Rain Rain
10:18 AM 48.9 °F - 46.9 °F 93% 29.70 in 2.5 mi West 6.9 mph - 0.07 in Rain Rain
10:25 AM 48.9 °F - 46.9 °F 93% 29.70 in 3.0 mi WNW 8.1 mph - 0.08 in Rain Rain
10:53 AM 48.9 °F - 46.9 °F 93% 29.70 in 4.0 mi West 4.6 mph - 0.11 in Rain Light Rain
11:00 AM 48.0 °F - 46.0 °F 93% 29.69 in 5.0 mi NW 8.1 mph - 0.01 in Rain Light Rain
11:53 AM 48.0 °F - 46.0 °F 93% 29.70 in 10.0 mi Calm Calm - 0.04 in Rain Light Rain
11:58 AM 48.0 °F - 46.0 °F 93% 29.70 in 10.0 mi West 4.6 mph - 0.00 in Rain Light Rain
12:05 PM 48.0 °F - 45.0 °F 89% 29.69 in 10.0 mi Variable 4.6 mph - 0.00 in   Overcast
12:38 PM 48.9 °F - 46.0 °F 90% 29.70 in 10.0 mi WSW 10.4 mph - 0.00 in   Overcast
12:45 PM 48.9 °F - 46.0 °F 90% 29.70 in 10.0 mi WSW 10.4 mph - 0.00 in   Overcast
12:53 PM 48.9 °F - 45.0 °F 86% 29.71 in 10.0 mi WSW 10.4 mph - 0.00 in   Overcast
1:30 PM 48.9 °F - 45.0 °F 86% 29.69 in 10.0 mi WSW 11.5 mph 17.3 mph 0.00 in   Overcast
1:49 PM 48.2 °F - 44.6 °F 87% 29.69 in 10.0 mi WSW 12.7 mph - 0.00 in   Overcast
1:53 PM 48.9 °F - 44.1 °F 83% 29.70 in 10.0 mi WSW 15.0 mph 20.7 mph 0.00 in   Overcast
2:53 PM 48.0 °F - 41.0 °F 77% 29.70 in 10.0 mi West 15.0 mph 25.3 mph N/A   Overcast
3:02 PM 48.0 °F - 41.0 °F 77% 29.69 in 10.0 mi WSW 15.0 mph 23.0 mph N/A   Overcast
3:35 PM 48.0 °F - 37.9 °F 68% 29.70 in 10.0 mi West 13.8 mph 28.8 mph N/A   Overcast
3:53 PM 46.9 °F - 37.0 °F 68% 29.72 in 10.0 mi West 15.0 mph 27.6 mph N/A   Overcast
4:37 PM 46.9 °F - 37.9 °F 71% 29.71 in 10.0 mi West 17.3 mph 23.0 mph N/A   Overcast
4:53 PM 46.9 °F - 37.9 °F 71% 29.72 in 10.0 mi WSW 10.4 mph 20.7 mph N/A   Overcast
5:00 PM 46.9 °F - 37.9 °F 71% 29.70 in 10.0 mi WSW 12.7 mph 19.6 mph N/A   Overcast
5:41 PM 46.9 °F - 37.9 °F 71% 29.71 in 10.0 mi WSW 13.8 mph 24.2 mph N/A   Overcast
5:53 PM 46.0 °F 41.0 °F 37.9 °F 73% 29.72 in 10.0 mi WSW 10.4 mph 23.0 mph N/A   Overcast
6:53 PM 45.0 °F 39.3 °F 39.0 °F 80% 29.73 in 10.0 mi WSW 11.5 mph - 0.00 in Rain Light Rain
7:53 PM 45.0 °F 39.3 °F 41.0 °F 86% 29.74 in 10.0 mi WSW 11.5 mph 24.2 mph 0.00 in Rain Light Rain
8:34 PM 45.0 °F 38.9 °F 41.0 °F 86% 29.73 in 10.0 mi WSW 12.7 mph 20.7 mph 0.00 in Rain Light Rain
8:53 PM 45.0 °F 38.2 °F 41.0 °F 86% 29.74 in 10.0 mi WSW 15.0 mph 25.3 mph 0.00 in Rain Light Rain
9:53 PM 45.0 °F 38.9 °F 42.1 °F 90% 29.74 in 10.0 mi West 12.7 mph 27.6 mph 0.01 in   Overcast
10:28 PM 45.0 °F 37.9 °F 42.1 °F 90% 29.72 in 9.0 mi West 16.1 mph 27.6 mph N/A   Overcast
10:53 PM 45.0 °F 38.9 °F 42.1 °F 90% 29.75 in 10.0 mi West 12.7 mph 24.2 mph N/A   Overcast
11:53 PM 45.0 °F 38.9 °F 42.1 °F 90% 29.75 in 10.0 mi West 12.7 mph 21.9 mph 0.00 in   Overcast